Tracking 19562 objects as of 22-Mar-2019
HD Live streaming from Space Station
objects crossing your sky now

FENGYUN 1C DEB

Track FENGYUN 1C DEB now!
10-day predictions


NORAD ID: 31738
Int'l Code: 1999-025CEM
Perigee: 741.3 km
Apogee: 1,235.4 km
Inclination: 99.6 °
Period: 104.7 minutes
Semi major axis: 7359 km
RCS: 0.0147 m2 (small)
Launch date: May 10, 1999
Source: People's Republic of China (PRC)
Launch site: Taiyaun Space Center, China (TSC)

Note: This is SATELLITE DEBRIS
aabbcc
Your satellite tracking list
Your tracking list is empty




NASA's NSSDC Master Catalog

Two Line Element Set (TLE):
1 31738U 99025CEM 19080.91876035  .00000447  00000-0  33957-3 0  9999
2 31738  99.5636 119.7389 0335701  84.0326 279.8971 13.75137601593297
Source of the keplerian elements: AFSPC